Tillbaka till svenska Fidonet
English   Information   Debug  
FILM   0/18
FNEWS_PUBLISH   4708
FN_SYSOP   42000
FN_SYSOP_OLD1   71952
FTP_FIDO   0/2
FTSC_PUBLIC   0/13896
FUNNY   0/4886
GENEALOGY.EUR   0/71
GET_INFO   105
GOLDED   0/408
HAM   99/16254
HOLYSMOKE   0/6791
HOT_SITES   0/1
HTMLEDIT   0/71
HUB203   466
HUB_100   264
HUB_400   39
HUMOR   0/29
IC   0/2851
INTERNET   0/424
INTERUSER   0/3
IP_CONNECT   719
JAMNNTPD   0/233
JAMTLAND   0/47
KATTY_KORNER   0/41
LAN   0/16
LINUX-USER   0/19
LINUXHELP   0/1155
LINUX   0/22257
LINUX_BBS   0/957
mail   18.68
mail_fore_ok   249
MENSA   0/341
MODERATOR   0/102
MONTE   0/992
MOSCOW_OKLAHOMA   0/1245
MUFFIN   0/783
MUSIC   0/321
N203_STAT   938
N203_SYSCHAT   313
NET203   321
NET204   69
NET_DEV   0/10
NORD.ADMIN   0/101
NORD.CHAT   0/2572
NORD.FIDONET   189
NORD.HARDWARE   0/28
NORD.KULTUR   0/114
NORD.PROG   0/32
NORD.SOFTWARE   0/88
NORD.TEKNIK   0/58
NORD   0/453
OCCULT_CHAT   0/93
OS2BBS   0/787
OS2DOSBBS   0/580
OS2HW   0/42
OS2INET   0/37
OS2LAN   0/134
OS2PROG   0/36
OS2REXX   0/113
OS2USER-L   207
OS2   0/4806
OSDEBATE   0/18996
PASCAL   0/490
PERL   0/457
PHP   0/45
POINTS   0/405
POLITICS   0/29554
POL_INC   0/14731
PSION   103
R20_ADMIN   1129
R20_AMATORRADIO   0/2
R20_BEST_OF_FIDONET   14
R20_CHAT   0/893
R20_DEPP   0/3
R20_DEV   399
R20_ECHO2   1625
R20_ECHOPRES   0/35
R20_ESTAT   0/719
R20_FIDONETPROG...
...RAM.MYPOINT
  0/2
R20_FIDONETPROGRAM   0/22
R20_FIDONET   0/248
R20_FILEFIND   0/24
R20_FILEFOUND   0/22
R20_HIFI   0/3
R20_INFO2   3516
R20_INTERNET   0/12940
R20_INTRESSE   0/60
R20_INTR_KOM   0/99
R20_KANDIDAT.CHAT   42
R20_KANDIDAT   28
R20_KOM_DEV   112
R20_KONTROLL   11714/13360
R20_KORSET   0/18
R20_LOKALTRAFIK   0/24
R20_MODERATOR   0/1852
R20_NC   76
R20_NET200   245
R20_NETWORK.OTH...
...ERNETS
  0/13
R20_OPERATIVSYS...
...TEM.LINUX
  0/44
R20_PROGRAMVAROR   0/1
R20_REC2NEC   534
R20_SFOSM   0/341
R20_SF   0/108
R20_SPRAK.ENGLISH   0/1
R20_SQUISH   107
R20_TEST   2
R20_WORST_OF_FIDONET   20
RAR   0/9
RA_MULTI   106
RA_UTIL   0/162
REGCON.EUR   0/2066
REGCON   0/13
SCIENCE   0/1206
SF   0/239
SHAREWARE_SUPPORT   0/5146
SHAREWRE   0/14
SIMPSONS   0/169
STATS_OLD1   0/2539.065
STATS_OLD2   0/2530
STATS_OLD3   0/2395.095
STATS_OLD4   0/1692.25
SURVIVOR   0/495
SYSOPS_CORNER   0/3
SYSOP   0/84
TAGLINES   0/112
TEAMOS2   0/4530
TECH   0/2617
TEST.444   0/105
TRAPDOOR   0/19
TREK   0/755
TUB   0/290
UFO   0/40
UNIX   0/1316
USA_EURLINK   0/102
USR_MODEMS   0/1
VATICAN   0/2740
VIETNAM_VETS   0/14
VIRUS   0/378
VIRUS_INFO   0/201
VISUAL_BASIC   0/473
WHITEHOUSE   0/5187
WIN2000   0/101
WIN32   0/30
WIN95   0/4291
WIN95_OLD1   58818/70272
WINDOWS   0/1517
WWB_SYSOP   0/419
WWB_TECH   0/810
ZCC-PUBLIC   0/1
ZEC   4

 
4DOS   0/134
ABORTION   0/7
ALASKA_CHAT   0/506
ALLFIX_FILE   0/1313
ALLFIX_FILE_OLD1   0/7997
ALT_DOS   0/152
AMATEUR_RADIO   0/1039
AMIGASALE   0/14
AMIGA   0/331
AMIGA_INT   0/1
AMIGA_PROG   0/20
AMIGA_SYSOP   0/26
ANIME   0/15
ARGUS   0/924
ASCII_ART   0/340
ASIAN_LINK   0/651
ASTRONOMY   0/417
AUDIO   0/92
AUTOMOBILE_RACING   0/105
BABYLON5   0/17862
BAG   135
BATPOWER   0/361
BBBS.ENGLISH   0/382
BBSLAW   0/109
BBS_ADS   0/5290
BBS_INTERNET   0/507
BIBLE   0/3563
BINKD   0/1119
BINKLEY   0/215
BLUEWAVE   0/2173
CABLE_MODEMS   0/25
CBM   0/46
CDRECORD   0/66
CDROM   0/20
CLASSIC_COMPUTER   0/378
COMICS   0/15
CONSPRCY   0/899
COOKING   39001
COOKING_OLD1   0/24719
COOKING_OLD2   0/40862
COOKING_OLD3   0/37489
COOKING_OLD4   0/35496
COOKING_OLD5   9370
C_ECHO   0/189
C_PLUSPLUS   0/31
DIRTY_DOZEN   0/201
DOORGAMES   0/2138
DOS_INTERNET   0/196
duplikat   6101
ECHOLIST   0/18295
EC_SUPPORT   0/318
ELECTRONICS   0/359
ELEKTRONIK.GER   1534
ENET.LINGUISTIC   0/13
ENET.POLITICS   0/4
ENET.SOFT   0/11701
ENET.SYSOP   34188
ENET.TALKS   0/32
ENGLISH_TUTOR   0/2000
EVOLUTION   0/1335
FDECHO   0/217
FDN_ANNOUNCE   0/7068
FIDONEWS   24649
FIDONEWS_OLD1   0/49742
FIDONEWS_OLD2   0/35949
FIDONEWS_OLD3   0/30874
FIDONEWS_OLD4   0/37224
FIDO_SYSOP   12899
FIDO_UTIL   0/180
FILEFIND   0/209
FILEGATE   0/212
Möte HAM, 16254 texter
 lista första sista föregående nästa
Text 569, 777 rader
Skriven 2005-09-16 02:16:35 av Amsat List (1:323/120.0)
Ärende: 
========
SB KEPS @ AMSAT  $ORB05258.O
Orbital Elements  05258.OSCAR

HR AMSAT ORBITAL ELEMENTS FOR OSCAR SATELLITES
FROM WA5QGD FORT WORTH,TX September 15, 2005
Send SUBSCRIBE KEPS/UNSUBSCRIBE KEPS to majordomo@amsat.org only
BID: ORB05258.O
TO ALL RADIO AMATEURS BT

Satellite: AO-07
Catalog number: 07530
Epoch time:      05257.69481008
Element set:    0483
Inclination:      101.6182 deg
RA of node:       302.0355 deg
Eccentricity:    0.0012256
Arg of perigee:   061.5055 deg
Mean anomaly:     298.7249 deg
Mean motion:   12.53570706 rev/day
Decay rate:       -2.8e-07 rev/day^2
Epoch rev:           41086
Checksum:              285

Satellite: AO-10
Catalog number: 14129
Epoch time:      05257.94257893
Element set:     214
Inclination:      027.4511 deg
RA of node:       013.2020 deg
Eccentricity:    0.6031155
Arg of perigee:   221.3500 deg
Mean anomaly:     072.5321 deg
Mean motion:   02.05869964 rev/day
Decay rate:      -1.68e-06 rev/day^2
Epoch rev:           16738
Checksum:              273

Satellite: UO-11
Catalog number: 14781
Epoch time:      05258.71314220
Element set:     880
Inclination:      098.2080 deg
RA of node:       258.1352 deg
Eccentricity:    0.0010231
Arg of perigee:   071.8054 deg
Mean anomaly:     288.4242 deg
Mean motion:   14.79307921 rev/day
Decay rate:       6.85e-06 rev/day^2
Epoch rev:           15518
Checksum:              286

Satellite: RS-10/11
Catalog number: 18129
Epoch time:      05257.74733703
Element set:    0788
Inclination:      082.9261 deg
RA of node:       171.9000 deg
Eccentricity:    0.0012824
Arg of perigee:   132.7589 deg
Mean anomaly:     227.4643 deg
Mean motion:   13.72763719 rev/day
Decay rate:       -2.7e-07 rev/day^2
Epoch rev:           91336
Checksum:              315

Satellite: FO-20
Catalog number: 20480
Epoch time:      05257.88505874
Element set:      10
Inclination:      099.0330 deg
RA of node:       055.0801 deg
Eccentricity:    0.0540791
Arg of perigee:   036.3209 deg
Mean anomaly:     327.3357 deg
Mean motion:   12.83348078 rev/day
Decay rate:       -4.0e-07 rev/day^2
Epoch rev:           73100
Checksum:              274

Satellite: RS-12/13
Catalog number: 21089
Epoch time:      05257.78269565
Element set:    0018
Inclination:      082.9237 deg
RA of node:       204.3909 deg
Eccentricity:    0.0028803
Arg of perigee:   186.7975 deg
Mean anomaly:     173.2800 deg
Mean motion:   13.74454772 rev/day
Decay rate:       1.09e-06 rev/day^2
Epoch rev:           73280
Checksum:              330

Satellite: RS-15
Catalog number: 23439
Epoch time:      05257.89436485
Element set:    0930
Inclination:      064.8237 deg
RA of node:       322.4707 deg
Eccentricity:    0.0165920
Arg of perigee:   300.6447 deg
Mean anomaly:     057.8210 deg
Mean motion:   11.27550946 rev/day
Decay rate:       -3.9e-07 rev/day^2
Epoch rev:           44150
Checksum:              308

Satellite: FO-29
Catalog number: 24278
Epoch time:      05257.69255767
Element set:    0048
Inclination:      098.5342 deg
RA of node:       295.1366 deg
Eccentricity:    0.0349919
Arg of perigee:   304.4073 deg
Mean anomaly:     052.4420 deg
Mean motion:   13.52914034 rev/day
Decay rate:       -5.8e-07 rev/day^2
Epoch rev:           44829
Checksum:              332

Satellite: SO-33
Catalog number: 25509
Epoch time:      05257.87610214
Element set:    0466
Inclination:      031.4322 deg
RA of node:       245.6256 deg
Eccentricity:    0.0355858
Arg of perigee:   229.9755 deg
Mean anomaly:     126.9126 deg
Mean motion:   14.28032065 rev/day
Decay rate:       1.48e-06 rev/day^2
Epoch rev:           35965
Checksum:              318

Satellite: AO-40
Catalog number: 26609
Epoch time:      05258.10116671
Element set:     605
Inclination:      007.5721 deg
RA of node:       280.6259 deg
Eccentricity:    0.7925984
Arg of perigee:   081.9212 deg
Mean anomaly:     351.5678 deg
Mean motion:   01.25583830 rev/day
Decay rate:      -4.46e-06 rev/day^2
Epoch rev:            2239
Checksum:              313

Satellite: VO-52
Catalog number: 28650
Epoch time:      05257.67334696
Element set:    0127
Inclination:      097.9024 deg
RA of node:       330.1686 deg
Eccentricity:    0.0027367
Arg of perigee:   174.9526 deg
Mean anomaly:     185.1953 deg
Mean motion:   14.80931519 rev/day
Decay rate:       6.29e-06 rev/day^2
Epoch rev:           01960
Checksum:              334

/EX
SB KEPS @ AMSAT  $ORB05258.D
Orbital Elements  05258.MICROS

HR AMSAT ORBITAL ELEMENTS FOR THE MICROSATS
FROM WA5QGD FORT WORTH,TX September 15, 2005
Send SUBSCRIBE KEPS/UNSUBSCRIBE KEPS to majordomo@amsat.org only
BID: ORB05258.D
TO ALL RADIO AMATEURS BT

Satellite: UO-14
Catalog number: 20437
Epoch time:      05257.59688640
Element set:     871
Inclination:      098.1973 deg
RA of node:       262.3191 deg
Eccentricity:    0.0010315
Arg of perigee:   293.2795 deg
Mean anomaly:     066.7306 deg
Mean motion:   14.31425577 rev/day
Decay rate:        1.9e-07 rev/day^2
Epoch rev:           81682
Checksum:              323

Satellite: AO-16
Catalog number: 20439
Epoch time:      05258.63324593
Element set:     558
Inclination:      098.2033 deg
RA of node:       278.8629 deg
Eccentricity:    0.0010159
Arg of perigee:   295.9064 deg
Mean anomaly:     064.1078 deg
Mean motion:   14.31690912 rev/day
Decay rate:        2.6e-07 rev/day^2
Epoch rev:           81703
Checksum:              316

Satellite: WO-18
Catalog number: 20441
Epoch time:      05257.65493673
Element set:    0758
Inclination:      098.2116 deg
RA of node:       282.4159 deg
Eccentricity:    0.0010851
Arg of perigee:   299.9362 deg
Mean anomaly:     060.0750 deg
Mean motion:   14.31762934 rev/day
Decay rate:        2.1e-07 rev/day^2
Epoch rev:           81695
Checksum:              316

